Weather History for KBHM - October, 2013

Change the Weather History Date:

Monday, October 7, 2013

  Actual Average Record
Temperature  
Mean Temperature 64 °F 67 °F  
Max Temperature 74 °F 78 °F 93 °F (1925)
Min Temperature 53 °F 56 °F 34 °F (1991)
Degree Days  
Heating Degree Days 1 2  
Month to date heating degree days 1 12  
Since 1 July heating degree days 1 21  
Cooling Degree Days 0 4  
Month to date cooling degree days 57 32  
Year to date cooling degree days 1900 1982  
Growing Degree Days 14 (Base 50)    
Moisture  
Dew Point 51 °F    
Average Humidity 68    
Maximum Humidity 100    
Minimum Humidity 35    
Precipitation  
Precipitation 0.00 in 0.11 in 1.97 in (1955)
Month to date precipitation 0.69 0.81  
Year to date precipitation 55.42 41.79  
Snow  
Snow 0.00 in 0.00 in - ()
Month to date snowfall 0.0 0.0  
Since 1 July snowfall 0.0 0.0  
Since 1 September snowfall 0.0 0.0  
Snow Depth 0.00 in    
Sea Level Pressure  
Sea Level Pressure 29.99 in    
Wind  
Wind Speed 7 mph (North)    
Max Wind Speed 17 mph    
Max Gust Speed 24 mph    
Visibility 10 miles    
Events      
T = Trace of Precipitation, MM = Missing Value Source: NWS Daily Summary

Daily Weather History Graph

Daily Weather History Graph

Search for Another Location

Airport or City:

Trip Planner

Search our weather history database for the weather conditions in past years. The results will help you decide how hot, cold, wet, or windy it might be!

Date:

Astronomy

Oct. 07, 2013 Rise Set
Actual Time 6:45 AM CDT 6:23 PM CDT
Civil Twilight 6:20 AM CDT 6:47 PM CDT
Nautical Twilight 5:52 AM CDT 7:16 PM CDT
Astronomical Twilight 5:23 AM CDT 7:45 PM CDT
Moon 9:26 AM CDT (10/7) 8:17 PM CDT (10/7)
Length of Visible Light 12h 26m
Length of Day
11h 37m
Waxing Crescent, 9% of the Moon is Illuminated
Oct 7
Waxing Crescent
Oct 11
First Quarter
Oct 18
Full
Oct 26
Last Quarter
Nov 3
New

Hourly Weather History & Observations

Time (CDT) Temp. Dew Point Humidity Pressure Visibility Wind Dir Wind Speed Gust Speed Precip Events Conditions
12:53 AM 57.9 °F 55.0 °F 90% 29.93 in 10.0 mi Variable 4.6 mph - 0.00 in   Overcast
1:53 AM 57.9 °F 55.0 °F 90% 29.93 in 10.0 mi North 4.6 mph - N/A   Overcast
2:53 AM 57.0 °F 54.0 °F 89% 29.94 in 10.0 mi Calm Calm - N/A   Scattered Clouds
3:53 AM 55.0 °F 54.0 °F 96% 29.95 in 10.0 mi Calm Calm - N/A   Clear
4:53 AM 55.0 °F 53.1 °F 93% 29.94 in 10.0 mi North 4.6 mph - N/A   Clear
5:53 AM 54.0 °F 53.1 °F 97% 29.95 in 10.0 mi North 4.6 mph - N/A   Clear
6:53 AM 54.0 °F 52.0 °F 93% 29.96 in 10.0 mi NNE 3.5 mph - N/A   Partly Cloudy
7:44 AM 55.4 °F 51.8 °F 88% 29.99 in 10.0 mi North 4.6 mph - N/A   Mostly Cloudy
7:53 AM 55.0 °F 53.1 °F 93% 29.98 in 10.0 mi North 5.8 mph - N/A   Mostly Cloudy
7:57 AM 55.4 °F 53.6 °F 94% 29.99 in 10.0 mi North 5.8 mph - N/A   Mostly Cloudy
8:53 AM 57.0 °F 54.0 °F 89% 30.00 in 10.0 mi North 8.1 mph - N/A   Mostly Cloudy
9:32 AM 59.0 °F 53.6 °F 82% 30.02 in 10.0 mi North 11.5 mph - N/A   Mostly Cloudy
9:53 AM 60.1 °F 53.1 °F 78% 30.01 in 10.0 mi NNE 10.4 mph - N/A   Mostly Cloudy
10:53 AM 64.0 °F 51.1 °F 63% 30.01 in 10.0 mi North 11.5 mph - N/A   Scattered Clouds
11:53 AM 66.9 °F 51.1 °F 57% 30.00 in 10.0 mi NNW 8.1 mph - N/A   Scattered Clouds
12:53 PM 70.0 °F 48.0 °F 46% 29.99 in 10.0 mi North 13.8 mph 19.6 mph N/A   Partly Cloudy
1:53 PM 72.0 °F 48.0 °F 43% 29.97 in 10.0 mi NNE 11.5 mph 16.1 mph N/A   Partly Cloudy
2:53 PM 73.0 °F 46.0 °F 38% 29.97 in 10.0 mi NNE 13.8 mph - N/A   Partly Cloudy
3:53 PM 73.0 °F 45.0 °F 37% 29.96 in 10.0 mi North 13.8 mph 20.7 mph N/A   Clear
4:53 PM 71.1 °F 45.0 °F 39% 29.97 in 10.0 mi North 13.8 mph - N/A   Clear
5:53 PM 66.9 °F 46.9 °F 49% 29.98 in 10.0 mi North 8.1 mph - N/A   Clear
6:53 PM 61.0 °F 48.0 °F 62% 30.00 in 10.0 mi North 5.8 mph - N/A   Clear
7:53 PM 60.1 °F 48.0 °F 64% 30.02 in 10.0 mi North 3.5 mph - N/A   Clear
8:53 PM 55.0 °F 48.9 °F 80% 30.04 in 10.0 mi North 5.8 mph - N/A   Clear
9:53 PM 57.0 °F 48.9 °F 74% 30.05 in 10.0 mi NNE 3.5 mph - N/A   Clear
10:53 PM 55.9 °F 48.0 °F 75% 30.05 in 10.0 mi North 5.8 mph - N/A   Clear
11:53 PM 54.0 °F 48.0 °F 80% 30.04 in 10.0 mi North 5.8 mph - N/A   Clear